Location: Newark
(34.1333°N, 7.9667°W)
Time: 09:30:48
(UTC+00:00)

COSMOS 2251 DEB - Pass Details

Date: 28 February 2024
Orbit: 726 x 941 km, 73.7° (Epoch: 12 April)

Event Time Altitude Azimuth Distance (km) Brightness Sun altitude
Exits shadow 04:50:58 17° 180° (S) 2,153 ? -28.0°
Maximum altitude 04:55:38 61° 104° (ESE) 1,038 ? -27.0°
Drops below altitude 10° 05:01:30 10° 25° (NNE) 2,572 ? -25.8°
Sets 05:03:57 0° 22° (NNE) 3,486 ? -25.3°
